DLH56S EDDF-KJFK

Flight info

Callsign DLH56S
Flight time N/A
Altitude 38000
Route OBOKA2L OBOKA Z29 TORNU DCT VICOT DCT GALSO Q63 ERING L179 UGBET Q60 OKSAW DCT BIBPE DCT TIGWE DCT FELCA DCT FADZU DCT NICXI DCT OFSOX DCT SLANY DCT DIMUS DCT MALOT/M083F390 DCT 54N020W 54N030W 54N040W 53N050W DCT RIKAL/N0485F400 N572A TOPPS DCT ENE PARCH3
Aircraft A388/J-SADE2E3FGHIJ3J4J5M1RWXY/LB1D1

Departure

Time 2026-05-04 06:14
Airport Frankfurt Main Airport (EDDF)

Arrival

Time N/A
Airport John F. Kennedy International Airport (KJFK)
Time Latitude Longitude Altitude Speed Heading
2026-05-04 05:53 50.04443 8.56267 367 ft 0 kts 165°
2026-05-04 06:03 50.04485 8.56268 367 ft 3 kts 211°
2026-05-04 06:03 50.04494 8.56292 372 ft 3 kts 253°
2026-05-04 06:05 50.04497 8.56305 370 ft 0 kts 250°
2026-05-04 06:06 50.04493 8.56286 372 ft 5 kts 251°
2026-05-04 06:06 50.04475 8.56206 368 ft 9 kts 250°
2026-05-04 06:06 50.04450 8.56104 371 ft 11 kts 250°
2026-05-04 06:07 50.04417 8.55969 365 ft 15 kts 245°
2026-05-04 06:07 50.04360 8.55928 370 ft 8 kts 164°
2026-05-04 06:07 50.04303 8.55953 369 ft 10 kts 165°
2026-05-04 06:07 50.04220 8.55929 361 ft 15 kts 196°
2026-05-04 06:08 50.04116 8.55959 363 ft 16 kts 165°
2026-05-04 06:08 50.04043 8.55914 363 ft 11 kts 243°
2026-05-04 06:08 50.04011 8.55793 362 ft 14 kts 249°
2026-05-04 06:08 50.03969 8.55616 363 ft 20 kts 250°
2026-05-04 06:09 50.03922 8.55417 365 ft 20 kts 250°
2026-05-04 06:09 50.03871 8.55202 363 ft 22 kts 250°
2026-05-04 06:11 50.03477 8.53556 353 ft 26 kts 250°
2026-05-04 06:11 50.03415 8.53299 336 ft 24 kts 250°
2026-05-04 06:13 50.03362 8.52592 360 ft 0 kts 177°
2026-05-04 06:14 49.99252 8.52621 1173 ft 190 kts 179°
2026-05-04 06:14 49.97896 8.52716 1478 ft 202 kts 178°
2026-05-04 06:15 49.96407 8.52840 1792 ft 221 kts 179°
2026-05-04 06:15 49.94860 8.52968 2540 ft 223 kts 179°
2026-05-04 06:15 49.93331 8.53085 3301 ft 223 kts 179°
2026-05-04 06:15 49.91770 8.53199 4028 ft 227 kts 179°
2026-05-04 06:16 49.90183 8.53308 4793 ft 230 kts 180°
2026-05-04 06:16 49.88584 8.53356 5501 ft 231 kts 189°
2026-05-04 06:16 49.87113 8.52460 6203 ft 229 kts 220°
2026-05-04 06:16 49.86144 8.50537 6910 ft 229 kts 241°
2026-05-04 06:17 49.85347 8.48294 7273 ft 247 kts 240°
2026-05-04 06:17 49.84458 8.45902 7600 ft 262 kts 240°
2026-05-04 06:17 49.83521 8.43448 8168 ft 267 kts 239°
2026-05-04 06:17 49.82570 8.40977 8998 ft 267 kts 239°
2026-05-04 06:18 49.81616 8.38499 9739 ft 269 kts 239°
2026-05-04 06:18 49.80817 8.35861 10286 ft 278 kts 255°
2026-05-04 06:18 49.80740 8.32761 10463 ft 301 kts 279°
2026-05-04 06:20 49.92768 8.15866 13973 ft 355 kts 318°
2026-05-04 06:20 49.94688 8.13426 14495 ft 359 kts 317°
2026-05-04 06:21 50.02546 8.03372 16520 ft 373 kts 317°
2026-05-04 06:21 50.04558 8.00793 17024 ft 376 kts 317°
2026-05-04 06:22 50.06589 7.98188 17549 ft 380 kts 317°
2026-05-04 06:22 50.08634 7.95562 18043 ft 382 kts 316°
2026-05-04 06:25 50.38645 7.64803 23453 ft 421 kts 332°
2026-05-04 06:25 50.41332 7.62952 23805 ft 423 kts 332°
2026-05-04 06:26 50.44036 7.61090 24159 ft 425 kts 332°
2026-05-04 06:26 50.46755 7.59217 24510 ft 427 kts 332°
2026-05-04 06:26 50.49466 7.57347 24873 ft 429 kts 332°
2026-05-04 06:26 50.52201 7.55459 25227 ft 431 kts 332°
2026-05-04 06:27 50.62554 7.46043 26757 ft 432 kts 322°
2026-05-04 06:28 50.65089 7.43456 27180 ft 434 kts 322°
2026-05-04 06:28 50.67627 7.40861 27612 ft 436 kts 322°
2026-05-04 06:28 50.70173 7.38251 28052 ft 438 kts 322°
2026-05-04 06:28 50.72629 7.35417 28463 ft 434 kts 313°
2026-05-04 06:29 50.74701 7.31992 28910 ft 429 kts 303°
2026-05-04 06:29 50.76368 7.28096 29203 ft 427 kts 294°
2026-05-04 06:29 50.79041 7.19843 29103 ft 423 kts 292°
2026-05-04 06:30 50.80384 7.15718 29220 ft 421 kts 292°
2026-05-04 06:30 50.81727 7.11592 29323 ft 424 kts 292°
2026-05-04 06:30 50.84461 7.03143 29358 ft 442 kts 292°
2026-05-04 06:31 50.85865 6.98791 29471 ft 447 kts 292°
2026-05-04 06:31 50.87279 6.94415 29202 ft 442 kts 292°
2026-05-04 06:31 50.88663 6.90132 29031 ft 430 kts 292°
2026-05-04 06:31 50.90000 6.85992 28978 ft 418 kts 292°
2026-05-04 06:32 50.91317 6.81886 28737 ft 419 kts 292°
2026-05-04 06:33 51.00648 6.52578 31200 ft 434 kts 292°
2026-05-04 06:34 51.01990 6.48340 31512 ft 436 kts 292°
2026-05-04 06:34 51.03356 6.44018 31846 ft 439 kts 291°
2026-05-04 06:34 51.04748 6.39605 32162 ft 442 kts 291°
2026-05-04 06:34 51.06108 6.35286 32498 ft 445 kts 291°
2026-05-04 06:35 51.07493 6.30881 32812 ft 447 kts 291°
2026-05-04 06:36 51.15870 5.98498 34989 ft 456 kts 280°
2026-05-04 06:37 51.16669 5.93598 35348 ft 457 kts 280°
2026-05-04 06:37 51.17472 5.88690 35722 ft 457 kts 280°
2026-05-04 06:37 51.18269 5.83789 36075 ft 457 kts 280°
2026-05-04 06:37 51.19083 5.78892 36426 ft 458 kts 281°
2026-05-04 06:38 51.19944 5.74000 36766 ft 459 kts 281°
2026-05-04 06:38 51.20817 5.69105 37090 ft 459 kts 281°
2026-05-04 06:40 51.26865 5.34243 37965 ft 481 kts 281°
2026-05-04 06:40 51.27744 5.29105 37967 ft 477 kts 281°
2026-05-04 06:40 51.29489 5.18873 37964 ft 478 kts 281°
2026-05-04 06:41 51.31227 5.08599 37964 ft 479 kts 281°
2026-05-04 06:41 51.32959 4.98301 37965 ft 480 kts 280°
2026-05-04 06:42 51.34676 4.88031 37970 ft 481 kts 280°
2026-05-04 06:44 51.41517 4.46484 37968 ft 483 kts 280°
2026-05-04 06:44 51.43199 4.36112 37968 ft 484 kts 280°
2026-05-04 06:45 51.44886 4.25645 37968 ft 484 kts 280°
2026-05-04 06:45 51.46562 4.15178 37970 ft 484 kts 280°
2026-05-04 06:46 51.48364 4.04741 37963 ft 489 kts 286°
2026-05-04 06:46 51.51173 3.94741 37956 ft 492 kts 291°
2026-05-04 06:48 51.62646 3.54824 37954 ft 492 kts 290°
2026-05-04 06:50 51.72608 3.14108 37974 ft 483 kts 270°
2026-05-04 06:51 51.72078 3.03404 37961 ft 478 kts 259°
2026-05-04 06:51 51.71162 2.92830 37953 ft 479 kts 260°
2026-05-04 06:52 51.70238 2.82172 37960 ft 479 kts 259°
2026-05-04 06:52 51.69294 2.71509 37967 ft 480 kts 259°
2026-05-04 06:53 51.68338 2.60838 37966 ft 481 kts 259°
2026-05-04 06:53 51.67376 2.50152 37966 ft 482 kts 259°
2026-05-04 06:54 51.66401 2.39461 37965 ft 482 kts 259°
2026-05-04 06:54 51.65413 2.28760 37966 ft 483 kts 259°
2026-05-04 06:55 51.64423 2.18136 37974 ft 484 kts 259°
2026-05-04 06:55 51.63410 2.07367 37974 ft 484 kts 260°
2026-05-04 06:57 51.59561 1.66268 37977 ft 485 kts 261°
2026-05-04 06:58 51.59377 1.53629 37979 ft 489 kts 272°
2026-05-04 06:58 51.59797 1.44486 37979 ft 489 kts 272°
2026-05-04 06:59 51.60254 1.33568 37982 ft 489 kts 272°
2026-05-04 06:59 51.60698 1.22716 37984 ft 490 kts 272°
2026-05-04 07:01 51.62414 0.78872 37996 ft 492 kts 272°
2026-05-04 07:02 51.62814 0.67876 37997 ft 492 kts 272°
2026-05-04 07:02 51.63222 0.56866 37986 ft 493 kts 272°
2026-05-04 07:03 51.63589 0.45863 37994 ft 493 kts 272°
2026-05-04 07:03 51.63964 0.34836 37994 ft 493 kts 272°
2026-05-04 07:04 51.64330 0.23798 37991 ft 494 kts 272°
2026-05-04 07:04 51.64283 0.12770 37989 ft 493 kts 263°
2026-05-04 07:05 51.63169 0.01899 37983 ft 492 kts 259°
2026-05-04 07:05 51.62105 -0.09000 38013 ft 493 kts 264°
2026-05-04 07:06 51.62168 -0.19826 38020 ft 482 kts 275°
2026-05-04 07:06 51.62526 -0.25187 38024 ft 482 kts 275°
2026-05-04 07:07 51.63189 -0.35955 37995 ft 484 kts 274°
2026-05-04 07:09 51.65709 -0.79137 37986 ft 485 kts 274°
2026-05-04 07:09 51.66318 -0.89972 37995 ft 485 kts 274°
2026-05-04 07:10 51.66912 -1.00731 37997 ft 485 kts 274°
2026-05-04 07:12 51.69208 -1.44117 37992 ft 485 kts 274°
2026-05-04 07:12 51.69756 -1.54957 37995 ft 485 kts 274°
2026-05-04 07:13 51.70295 -1.65802 37992 ft 485 kts 274°
2026-05-04 07:13 51.70941 -1.76636 37995 ft 485 kts 276°
2026-05-04 07:14 51.72947 -2.03602 37995 ft 485 kts 276°
2026-05-04 07:15 51.73703 -2.14424 38010 ft 486 kts 275°
2026-05-04 07:15 51.74449 -2.25259 38010 ft 486 kts 275°
2026-05-04 07:16 51.75185 -2.36099 38010 ft 486 kts 275°
2026-05-04 07:16 51.75912 -2.46944 38004 ft 486 kts 275°
2026-05-04 07:17 51.76624 -2.57733 38017 ft 486 kts 275°
2026-05-04 07:17 51.77331 -2.68587 38034 ft 486 kts 275°
2026-05-04 07:18 51.78029 -2.79468 38044 ft 487 kts 275°
2026-05-04 07:18 51.78717 -2.90347 38045 ft 487 kts 275°
2026-05-04 07:19 51.79396 -3.01246 38048 ft 487 kts 275°
2026-05-04 07:19 51.80064 -3.12147 38036 ft 488 kts 275°
2026-05-04 07:20 51.80725 -3.23063 38028 ft 488 kts 275°
2026-05-04 07:20 51.81372 -3.33957 38012 ft 489 kts 275°
2026-05-04 07:22 51.85583 -3.77390 37985 ft 491 kts 282°
2026-05-04 07:23 51.86966 -3.88222 37981 ft 492 kts 282°
2026-05-04 07:23 51.88346 -3.99079 37986 ft 493 kts 281°
2026-05-04 07:24 51.89716 -4.09957 37987 ft 493 kts 281°
2026-05-04 07:24 51.91079 -4.20853 37991 ft 494 kts 281°
2026-05-04 07:26 51.96434 -4.64544 37993 ft 495 kts 281°
2026-05-04 07:27 51.97750 -4.75510 37991 ft 495 kts 281°
2026-05-04 07:27 51.99058 -4.86489 37992 ft 496 kts 281°
2026-05-04 07:28 52.00350 -4.97431 37996 ft 496 kts 281°
2026-05-04 07:28 52.01640 -5.08447 37997 ft 497 kts 281°
2026-05-04 07:29 52.02991 -5.19440 37996 ft 496 kts 285°
2026-05-04 07:29 52.05083 -5.30123 37996 ft 496 kts 289°
2026-05-04 07:30 52.07231 -5.40781 38005 ft 496 kts 289°
2026-05-04 07:30 52.09368 -5.51470 38003 ft 497 kts 289°
2026-05-04 07:31 52.11501 -5.62168 38008 ft 497 kts 289°
2026-05-04 07:33 52.20010 -6.05032 38016 ft 499 kts 289°
2026-05-04 07:33 52.22143 -6.15806 38024 ft 499 kts 289°
2026-05-04 07:34 52.24157 -6.26627 38025 ft 500 kts 284°
2026-05-04 07:34 52.25520 -6.37693 38030 ft 500 kts 283°
2026-05-04 07:35 52.26891 -6.48749 38033 ft 500 kts 283°
2026-05-04 07:35 52.28275 -6.59892 38041 ft 500 kts 283°
2026-05-04 07:36 52.29648 -6.71034 38048 ft 500 kts 283°
2026-05-04 07:38 52.34977 -7.15540 38045 ft 499 kts 282°
2026-05-04 07:38 52.36282 -7.26689 38043 ft 499 kts 282°
2026-05-04 07:39 52.37578 -7.37855 38044 ft 499 kts 282°
2026-05-04 07:39 52.38863 -7.49027 38042 ft 499 kts 282°
2026-05-04 07:40 52.40139 -7.60214 38047 ft 500 kts 282°
2026-05-04 07:40 52.41396 -7.71336 38051 ft 500 kts 282°
2026-05-04 07:41 52.42650 -7.82531 38057 ft 501 kts 282°
2026-05-04 07:41 52.43898 -7.93778 38061 ft 501 kts 282°
2026-05-04 07:42 52.45133 -8.05007 38066 ft 501 kts 282°
2026-05-04 07:42 52.46360 -8.16264 38067 ft 501 kts 282°
2026-05-04 07:43 52.47574 -8.27506 38077 ft 501 kts 282°
2026-05-04 07:43 52.48778 -8.38765 38069 ft 501 kts 282°
2026-05-04 07:44 52.49971 -8.50023 38071 ft 500 kts 282°
2026-05-04 07:44 52.51153 -8.61290 38087 ft 500 kts 282°
2026-05-04 07:45 52.52316 -8.72477 38089 ft 500 kts 282°
2026-05-04 07:45 52.53473 -8.83712 38093 ft 500 kts 282°
2026-05-04 07:46 52.54621 -8.94972 38096 ft 499 kts 282°
2026-05-04 07:46 52.55569 -9.04357 38094 ft 500 kts 282°
2026-05-04 07:47 52.56697 -9.15621 38091 ft 500 kts 282°
2026-05-04 07:49 52.61104 -9.60773 38095 ft 499 kts 281°
2026-05-04 07:49 52.62179 -9.72071 38094 ft 499 kts 281°
2026-05-04 07:50 52.63235 -9.83285 38099 ft 499 kts 281°
2026-05-04 07:50 52.64288 -9.94599 38116 ft 499 kts 281°
2026-05-04 07:51 52.65329 -10.05895 38118 ft 499 kts 281°
2026-05-04 07:51 52.66359 -10.17196 38114 ft 498 kts 281°
2026-05-04 07:52 52.67371 -10.28426 38114 ft 497 kts 281°
2026-05-04 07:52 52.68383 -10.39773 38105 ft 497 kts 281°
2026-05-04 07:54 52.72282 -10.84743 38116 ft 495 kts 281°
2026-05-04 07:55 52.73230 -10.95996 38126 ft 495 kts 281°
2026-05-04 07:55 52.74168 -11.07264 38129 ft 495 kts 281°
2026-05-04 07:56 52.75095 -11.18534 38126 ft 495 kts 281°
2026-05-04 07:56 52.76010 -11.29797 38134 ft 495 kts 281°
2026-05-04 07:57 52.76909 -11.40986 38136 ft 495 kts 281°
2026-05-04 07:57 52.77803 -11.52255 38138 ft 495 kts 281°
2026-05-04 07:58 52.78686 -11.63533 38146 ft 494 kts 281°
2026-05-04 07:58 52.79557 -11.74792 38148 ft 494 kts 280°
2026-05-04 07:59 52.80419 -11.86075 38149 ft 494 kts 280°
2026-05-04 07:59 52.81267 -11.97308 38704 ft 494 kts 280°
2026-05-04 08:00 52.81687 -12.02937 39036 ft 494 kts 280°
2026-05-04 08:00 52.82106 -12.08582 39142 ft 495 kts 280°
2026-05-04 08:02 52.85331 -12.53386 39159 ft 490 kts 280°
2026-05-04 08:02 52.86105 -12.64504 39160 ft 489 kts 279°
2026-05-04 08:03 52.86873 -12.75694 39162 ft 489 kts 279°
2026-05-04 08:03 52.87631 -12.86885 39167 ft 488 kts 279°
2026-05-04 08:04 52.88377 -12.98077 39172 ft 488 kts 279°
2026-05-04 08:04 52.89113 -13.09258 39174 ft 488 kts 279°
2026-05-04 08:05 52.89836 -13.20420 39174 ft 488 kts 279°
2026-05-04 08:05 52.90544 -13.31523 39182 ft 487 kts 279°
2026-05-04 08:06 52.91247 -13.42694 39178 ft 487 kts 279°
2026-05-04 08:06 52.91938 -13.53852 39178 ft 487 kts 279°
2026-05-04 08:08 52.94594 -13.98466 39193 ft 485 kts 278°
2026-05-04 08:11 52.97370 -14.48494 39196 ft 484 kts 278°
2026-05-04 08:11 52.98250 -14.65183 39195 ft 483 kts 277°
2026-05-04 08:12 52.98830 -14.76305 39198 ft 483 kts 277°
2026-05-04 08:12 52.99401 -14.87412 39198 ft 483 kts 277°
2026-05-04 08:13 53.00055 -14.98484 39198 ft 480 kts 283°
2026-05-04 08:13 53.02015 -15.09001 39198 ft 476 kts 293°
2026-05-04 08:14 53.04337 -15.19309 39200 ft 476 kts 292°
2026-05-04 08:16 53.13507 -15.60599 39209 ft 477 kts 292°
2026-05-04 08:16 53.15783 -15.70990 39213 ft 477 kts 292°
2026-05-04 08:17 53.18049 -15.81390 39216 ft 477 kts 291°
2026-05-04 08:17 53.20301 -15.91782 39215 ft 477 kts 291°
2026-05-04 08:19 53.29220 -16.33453 39211 ft 476 kts 291°
2026-05-04 08:20 53.31410 -16.43817 39212 ft 476 kts 291°
2026-05-04 08:20 53.33607 -16.54266 39216 ft 476 kts 291°
2026-05-04 08:21 53.35793 -16.64719 39216 ft 475 kts 291°
2026-05-04 08:21 53.37969 -16.75178 39220 ft 475 kts 291°
2026-05-04 08:22 53.40136 -16.85647 39219 ft 475 kts 291°
2026-05-04 08:24 53.48703 -17.27594 39229 ft 475 kts 290°
2026-05-04 08:24 53.50819 -17.38090 39226 ft 474 kts 290°
2026-05-04 08:25 53.52927 -17.48600 39232 ft 474 kts 289°
2026-05-04 08:25 53.55018 -17.59092 39236 ft 474 kts 289°
2026-05-04 08:27 53.63272 -18.01050 39238 ft 471 kts 289°
2026-05-04 08:28 53.65310 -18.11551 39238 ft 471 kts 289°
2026-05-04 08:28 53.67337 -18.22052 39239 ft 470 kts 288°
2026-05-04 08:29 53.69350 -18.32538 39239 ft 470 kts 288°
2026-05-04 08:31 53.77289 -18.74475 39244 ft 469 kts 288°
2026-05-04 08:33 53.85069 -19.16503 39253 ft 468 kts 288°
2026-05-04 08:35 53.92393 -19.56961 39259 ft 468 kts 287°
2026-05-04 08:35 53.94281 -19.67540 39258 ft 468 kts 287°
2026-05-04 08:37 54.00092 -20.04838 39268 ft 468 kts 278°
2026-05-04 08:38 54.00608 -20.15877 39271 ft 469 kts 274°
2026-05-04 08:38 54.01054 -20.26949 39282 ft 469 kts 275°
2026-05-04 08:40 54.02754 -20.71166 39291 ft 469 kts 274°
2026-05-04 08:41 54.03141 -20.82170 39277 ft 469 kts 274°
2026-05-04 08:41 54.03521 -20.93249 39285 ft 468 kts 274°
2026-05-04 08:42 54.03890 -21.04316 39293 ft 468 kts 274°
2026-05-04 08:42 54.04248 -21.15385 39298 ft 468 kts 274°
2026-05-04 08:43 54.04596 -21.26432 39286 ft 468 kts 274°
2026-05-04 08:43 54.04935 -21.37503 39302 ft 468 kts 274°
2026-05-04 08:44 54.05263 -21.48566 39300 ft 468 kts 274°
2026-05-04 08:46 54.06473 -21.92810 39307 ft 469 kts 273°
2026-05-04 08:46 54.06750 -22.03892 39312 ft 468 kts 273°
2026-05-04 08:47 54.07017 -22.14978 39311 ft 468 kts 273°
2026-05-04 08:47 54.07274 -22.26058 39309 ft 468 kts 273°
2026-05-04 08:48 54.07521 -22.37151 39314 ft 468 kts 272°
2026-05-04 08:48 54.07758 -22.48223 39317 ft 468 kts 272°
2026-05-04 08:49 54.07984 -22.59333 39314 ft 468 kts 272°
2026-05-04 08:50 54.08696 -22.98058 39321 ft 468 kts 272°
2026-05-04 08:51 54.08876 -23.09159 39319 ft 468 kts 272°
2026-05-04 08:51 54.09047 -23.20256 39322 ft 468 kts 272°
2026-05-04 08:52 54.09206 -23.31269 39320 ft 468 kts 272°
2026-05-04 08:52 54.09356 -23.42384 39325 ft 469 kts 272°
2026-05-04 08:54 54.09855 -23.86860 39341 ft 470 kts 271°
2026-05-04 08:55 54.09954 -23.97939 39343 ft 470 kts 271°
2026-05-04 08:55 54.10043 -24.09083 39345 ft 470 kts 271°
2026-05-04 09:01 54.10358 -25.25779 39362 ft 469 kts 270°
2026-05-04 09:01 54.10329 -25.36904 39361 ft 469 kts 270°
2026-05-04 09:02 54.10290 -25.48026 39371 ft 469 kts 270°
2026-05-04 09:02 54.10241 -25.59149 39370 ft 471 kts 270°
2026-05-04 09:03 54.10180 -25.70487 39371 ft 486 kts 270°
2026-05-04 09:03 54.10107 -25.82147 39369 ft 494 kts 270°
2026-05-04 09:04 54.10022 -25.93781 39374 ft 491 kts 270°
2026-05-04 09:04 54.09926 -26.05366 39376 ft 492 kts 270°
2026-05-04 09:05 54.09818 -26.17037 39373 ft 492 kts 270°
2026-05-04 09:05 54.09699 -26.28692 39379 ft 492 kts 270°
2026-05-04 09:06 54.09569 -26.40374 39380 ft 492 kts 269°
2026-05-04 09:08 54.08937 -26.86972 39384 ft 492 kts 269°
2026-05-04 09:08 54.08750 -26.98625 39383 ft 492 kts 269°
2026-05-04 09:09 54.08552 -27.10285 39385 ft 492 kts 269°
2026-05-04 09:09 54.08345 -27.21859 39391 ft 492 kts 269°
2026-05-04 09:10 54.08125 -27.33516 39389 ft 491 kts 269°
2026-05-04 09:10 54.07893 -27.45158 39382 ft 492 kts 269°
2026-05-04 09:11 54.07651 -27.56800 39390 ft 492 kts 269°
2026-05-04 09:11 54.07397 -27.68453 39384 ft 492 kts 269°
2026-05-04 09:12 54.07132 -27.80102 39383 ft 492 kts 268°
2026-05-04 09:14 54.05960 -28.26650 39393 ft 492 kts 268°
2026-05-04 09:14 54.05640 -28.38216 39393 ft 492 kts 268°
2026-05-04 09:15 54.05307 -28.49867 39393 ft 492 kts 268°
2026-05-04 09:15 54.04964 -28.61496 39392 ft 492 kts 268°
2026-05-04 09:17 54.03280 -29.13763 39394 ft 492 kts 267°
2026-05-04 09:18 54.02875 -29.25381 39394 ft 492 kts 267°
2026-05-04 09:18 54.02459 -29.36984 39393 ft 492 kts 267°
2026-05-04 09:19 54.02032 -29.48602 39392 ft 492 kts 267°
2026-05-04 09:19 54.01595 -29.60193 39395 ft 492 kts 267°
2026-05-04 09:20 54.01153 -29.71811 39395 ft 491 kts 267°
2026-05-04 09:20 54.00703 -29.83432 39394 ft 492 kts 266°
2026-05-04 09:21 54.00321 -29.93051 39395 ft 491 kts 266°
2026-05-04 09:21 53.99974 -30.06521 39397 ft 492 kts 273°
2026-05-04 09:22 54.00576 -30.18089 39394 ft 491 kts 275°
2026-05-04 09:22 54.01070 -30.27774 39393 ft 491 kts 275°
2026-05-04 09:23 54.01557 -30.39300 39393 ft 491 kts 274°
2026-05-04 09:23 54.02007 -30.50904 39395 ft 491 kts 274°
2026-05-04 09:25 54.03658 -30.97319 39390 ft 491 kts 273°
2026-05-04 09:26 54.04041 -31.08933 39387 ft 492 kts 273°
2026-05-04 09:26 54.04413 -31.20554 39389 ft 491 kts 273°
2026-05-04 09:27 54.04771 -31.32103 39389 ft 492 kts 273°
2026-05-04 09:27 54.05120 -31.43713 39390 ft 492 kts 273°
2026-05-04 09:28 54.05459 -31.55335 39389 ft 492 kts 273°
2026-05-04 09:28 54.05788 -31.67037 39389 ft 492 kts 273°
2026-05-04 09:29 54.06102 -31.78593 39392 ft 491 kts 272°
2026-05-04 09:29 54.06406 -31.90230 39392 ft 491 kts 272°
2026-05-04 09:30 54.06700 -32.01854 39390 ft 491 kts 272°
2026-05-04 09:30 54.06982 -32.13475 39389 ft 491 kts 272°
2026-05-04 09:31 54.07253 -32.25121 39393 ft 492 kts 272°
2026-05-04 09:31 54.07513 -32.36759 39395 ft 492 kts 272°
2026-05-04 09:32 54.07761 -32.48383 39392 ft 491 kts 272°
2026-05-04 09:34 54.08642 -32.94873 39393 ft 491 kts 272°
2026-05-04 09:34 54.08834 -33.06498 39391 ft 492 kts 272°
2026-05-04 09:35 54.09016 -33.18172 39394 ft 491 kts 271°
2026-05-04 09:35 54.09185 -33.29733 39396 ft 491 kts 271°
2026-05-04 09:37 54.09752 -33.76297 39395 ft 491 kts 271°
2026-05-04 09:38 54.09866 -33.87944 39395 ft 492 kts 271°
2026-05-04 09:38 54.09969 -33.99609 39395 ft 492 kts 271°
2026-05-04 09:39 54.10060 -34.11260 39394 ft 492 kts 271°
2026-05-04 09:39 54.10140 -34.22922 39396 ft 492 kts 271°
2026-05-04 09:40 54.10209 -34.34588 39397 ft 492 kts 271°
2026-05-04 09:40 54.10267 -34.46260 39393 ft 492 kts 271°
2026-05-04 09:42 54.10384 -34.92876 39390 ft 493 kts 270°
2026-05-04 09:43 54.10385 -35.04553 39391 ft 492 kts 270°
2026-05-04 09:43 54.10375 -35.16236 39390 ft 493 kts 270°
2026-05-04 09:44 54.10354 -35.27839 39386 ft 493 kts 270°
2026-05-04 09:46 54.10155 -35.74627 39384 ft 494 kts 270°
2026-05-04 09:46 54.10078 -35.86240 39381 ft 494 kts 270°
2026-05-04 09:47 54.09988 -35.97949 39382 ft 494 kts 270°
2026-05-04 09:49 54.09517 -36.44742 39373 ft 494 kts 270°
2026-05-04 09:51 54.08956 -36.85688 39369 ft 494 kts 269°
2026-05-04 09:51 54.08770 -36.97408 39372 ft 494 kts 269°
2026-05-04 09:52 54.08573 -37.09111 39364 ft 494 kts 269°
2026-05-04 09:52 54.08364 -37.20837 39366 ft 494 kts 269°
2026-05-04 09:53 54.08144 -37.32520 39363 ft 494 kts 269°
2026-05-04 09:53 54.07912 -37.44214 39359 ft 494 kts 269°
2026-05-04 09:54 54.07671 -37.55832 39356 ft 494 kts 269°
2026-05-04 09:54 54.07417 -37.67542 39358 ft 494 kts 269°
2026-05-04 09:55 54.07152 -37.79224 39351 ft 494 kts 269°
2026-05-04 09:55 54.06875 -37.90925 39344 ft 494 kts 269°
2026-05-04 09:56 54.06587 -38.02622 39346 ft 494 kts 269°
2026-05-04 09:56 54.06288 -38.14308 39345 ft 494 kts 269°
2026-05-04 09:57 54.05978 -38.25970 39343 ft 493 kts 269°
2026-05-04 09:57 54.05656 -38.37663 39340 ft 493 kts 268°
2026-05-04 09:58 54.05325 -38.49248 39340 ft 493 kts 268°
2026-05-04 09:58 54.04981 -38.60912 39338 ft 493 kts 268°
2026-05-04 10:00 54.03496 -39.07425 39328 ft 492 kts 268°
2026-05-04 10:04 54.01398 -39.65390 39310 ft 489 kts 268°
2026-05-04 10:05 53.99426 -40.09620 39295 ft 490 kts 265°
2026-05-04 10:05 53.98628 -40.22996 39291 ft 489 kts 266°
2026-05-04 10:06 53.97972 -40.34478 39286 ft 489 kts 266°
2026-05-04 10:06 53.97408 -40.44103 39286 ft 488 kts 266°
2026-05-04 10:08 53.94118 -40.96996 39269 ft 486 kts 265°
2026-05-04 10:09 53.93380 -41.08314 39254 ft 485 kts 265°
2026-05-04 10:09 53.92627 -41.19685 39260 ft 485 kts 265°
2026-05-04 10:10 53.91861 -41.31072 39253 ft 486 kts 265°
2026-05-04 10:10 53.91086 -41.42448 39251 ft 485 kts 265°
2026-05-04 10:11 53.90300 -41.53818 39240 ft 485 kts 265°
2026-05-04 10:11 53.89502 -41.65200 39248 ft 485 kts 265°
2026-05-04 10:12 53.88695 -41.76547 39242 ft 485 kts 265°
2026-05-04 10:12 53.87877 -41.87896 39236 ft 484 kts 264°
2026-05-04 10:13 53.87050 -41.99226 39228 ft 484 kts 264°
2026-05-04 10:13 53.86218 -42.10474 39228 ft 484 kts 264°
2026-05-04 10:14 53.85370 -42.21790 39224 ft 484 kts 264°
2026-05-04 10:16 53.81866 -42.67056 39197 ft 485 kts 264°
2026-05-04 10:16 53.80963 -42.78379 39197 ft 484 kts 263°
2026-05-04 10:17 53.80050 -42.89673 39183 ft 483 kts 263°
2026-05-04 10:19 53.76341 -43.34239 39174 ft 476 kts 263°
2026-05-04 10:19 53.75396 -43.45277 39170 ft 474 kts 262°
2026-05-04 10:20 53.74440 -43.56316 39161 ft 474 kts 262°
2026-05-04 10:20 53.73640 -43.65463 39148 ft 473 kts 262°
2026-05-04 10:21 53.72511 -43.78244 39155 ft 473 kts 262°
2026-05-04 10:21 53.71529 -43.89216 39140 ft 473 kts 262°
2026-05-04 10:22 53.70199 -44.03904 39137 ft 473 kts 261°
2026-05-04 10:23 53.69200 -44.14802 39135 ft 474 kts 261°
2026-05-04 10:25 53.65049 -44.58916 39107 ft 479 kts 261°
2026-05-04 10:25 53.63978 -44.70015 39106 ft 480 kts 261°
2026-05-04 10:26 53.62894 -44.81139 39101 ft 481 kts 260°
2026-05-04 10:26 53.61805 -44.92196 39087 ft 482 kts 260°
2026-05-04 10:27 53.60697 -45.03341 39082 ft 483 kts 260°
2026-05-04 10:27 53.59575 -45.14517 39071 ft 484 kts 260°
2026-05-04 10:28 53.58442 -45.25690 39071 ft 483 kts 260°
2026-05-04 10:28 53.57882 -45.31179 39064 ft 469 kts 260°
2026-05-04 10:28 53.57335 -45.36514 39065 ft 458 kts 259°
2026-05-04 10:29 53.56238 -45.47128 39058 ft 464 kts 259°
2026-05-04 10:29 53.55118 -45.57864 39052 ft 465 kts 259°
2026-05-04 10:30 53.53994 -45.68549 39042 ft 464 kts 259°
2026-05-04 10:30 53.52857 -45.79256 39038 ft 466 kts 259°
2026-05-04 10:31 53.51715 -45.89924 39036 ft 467 kts 259°
2026-05-04 10:32 53.47597 -46.27611 39028 ft 469 kts 259°
2026-05-04 10:33 53.46398 -46.38375 39031 ft 469 kts 258°
2026-05-04 10:33 53.45191 -46.49116 39014 ft 468 kts 258°
2026-05-04 10:34 53.43978 -46.59816 39008 ft 467 kts 258°
2026-05-04 10:34 53.42755 -46.70516 39001 ft 466 kts 258°
2026-05-04 10:35 53.41531 -46.81135 38992 ft 466 kts 258°
2026-05-04 10:35 53.40293 -46.91789 38982 ft 465 kts 258°
2026-05-04 10:36 53.39046 -47.02430 38970 ft 465 kts 258°
2026-05-04 10:36 53.37792 -47.13049 38967 ft 465 kts 258°
2026-05-04 10:37 53.36526 -47.23680 38957 ft 465 kts 258°
2026-05-04 10:37 53.35260 -47.34230 38959 ft 465 kts 257°
2026-05-04 10:39 53.30722 -47.71361 38937 ft 465 kts 257°
2026-05-04 10:40 53.29402 -47.81979 38932 ft 466 kts 257°
2026-05-04 10:40 53.28082 -47.92514 38924 ft 466 kts 257°
2026-05-04 10:41 53.26743 -48.03116 38919 ft 466 kts 256°
2026-05-04 10:41 53.25394 -48.13712 38915 ft 466 kts 256°
2026-05-04 10:42 53.24036 -48.24305 38910 ft 466 kts 256°
2026-05-04 10:42 53.22669 -48.34886 38905 ft 466 kts 256°
2026-05-04 10:43 53.21293 -48.45458 38893 ft 467 kts 256°
2026-05-04 10:45 53.15696 -48.87675 38871 ft 467 kts 255°
2026-05-04 10:45 53.14269 -48.98244 38869 ft 467 kts 255°
2026-05-04 10:46 53.12833 -49.08809 38855 ft 468 kts 255°
2026-05-04 10:46 53.11385 -49.19379 38854 ft 468 kts 255°
2026-05-04 10:47 53.09930 -49.29930 38844 ft 468 kts 255°
2026-05-04 10:47 53.08462 -49.40500 38844 ft 468 kts 255°
2026-05-04 10:49 53.02515 -49.82699 38816 ft 470 kts 254°
2026-05-04 10:50 53.00983 -49.93190 38808 ft 470 kts 252°
2026-05-04 10:52 52.91874 -50.33739 38784 ft 470 kts 246°
2026-05-04 10:52 52.89436 -50.43790 38789 ft 470 kts 246°
2026-05-04 10:54 52.79559 -50.83951 38762 ft 472 kts 246°
2026-05-04 10:56 52.69502 -51.24108 38735 ft 474 kts 245°
2026-05-04 10:57 52.66955 -51.34164 38733 ft 475 kts 245°
2026-05-04 10:57 52.64419 -51.44133 38726 ft 475 kts 245°
2026-05-04 10:58 52.61856 -51.54162 38725 ft 475 kts 245°
2026-05-04 10:58 52.59280 -51.64195 38717 ft 475 kts 245°
2026-05-04 10:59 52.56697 -51.74213 38708 ft 475 kts 245°
2026-05-04 10:59 52.54114 -51.84188 38701 ft 475 kts 245°
2026-05-04 11:00 52.51511 -51.94192 38698 ft 475 kts 245°
2026-05-04 11:02 52.41066 -52.33903 38670 ft 474 kts 244°
2026-05-04 11:05 52.21250 -53.07402 38612 ft 470 kts 244°
2026-05-04 11:06 52.18571 -53.17161 38607 ft 471 kts 244°
2026-05-04 11:06 52.15905 -53.26831 38612 ft 471 kts 244°
2026-05-04 11:10 51.97307 -53.93205 38554 ft 473 kts 243°
2026-05-04 11:12 51.86230 -54.31864 38530 ft 473 kts 243°
2026-05-04 11:12 51.83457 -54.41449 38522 ft 473 kts 243°
2026-05-04 11:13 51.80641 -54.51063 38514 ft 472 kts 241°
2026-05-04 11:13 51.77399 -54.60269 38511 ft 471 kts 236°
2026-05-04 11:14 51.76805 -54.61790 38511 ft 471 kts 236°
2026-05-04 11:16 51.60226 -55.05155 38479 ft 471 kts 236°
2026-05-04 11:16 51.56781 -55.14118 38475 ft 471 kts 236°
2026-05-04 11:17 51.53324 -55.23081 38470 ft 472 kts 236°
2026-05-04 11:19 51.39400 -55.58802 38437 ft 472 kts 236°
2026-05-04 11:19 51.35917 -55.67652 38431 ft 472 kts 236°
2026-05-04 11:20 51.32394 -55.76571 38421 ft 480 kts 236°
2026-05-04 11:20 51.28754 -55.85750 38414 ft 497 kts 236°
2026-05-04 11:22 51.13892 -56.22923 38388 ft 497 kts 235°
2026-05-04 11:23 51.10179 -56.32126 38384 ft 497 kts 235°
2026-05-04 11:25 50.97040 -56.64430 38356 ft 497 kts 234°
2026-05-04 11:25 50.93270 -56.73625 38351 ft 497 kts 234°
2026-05-04 11:27 50.76264 -57.14705 38308 ft 496 kts 234°
2026-05-04 11:28 50.72463 -57.23798 38309 ft 495 kts 234°
2026-05-04 11:28 50.68663 -57.32858 38298 ft 495 kts 234°
2026-05-04 11:29 50.64861 -57.41893 38293 ft 494 kts 234°
2026-05-04 11:29 50.61049 -57.50917 38295 ft 494 kts 234°
2026-05-04 11:33 50.34226 -58.13565 38260 ft 495 kts 234°
2026-05-04 11:33 50.30351 -58.22491 38260 ft 495 kts 234°
2026-05-04 11:34 50.26470 -58.31403 38249 ft 496 kts 234°
2026-05-04 11:34 50.22583 -58.40299 38250 ft 496 kts 234°
2026-05-04 11:35 50.18683 -58.49193 38233 ft 496 kts 234°
2026-05-04 11:35 50.14774 -58.58078 38240 ft 496 kts 234°
2026-05-04 11:36 50.10884 -58.66891 38237 ft 496 kts 233°
2026-05-04 11:36 50.06962 -58.75747 38238 ft 496 kts 233°
2026-05-04 11:37 50.03025 -58.84606 38232 ft 497 kts 233°
2026-05-04 11:37 49.99115 -58.93376 38235 ft 497 kts 233°
2026-05-04 11:38 49.95167 -59.02200 38226 ft 497 kts 233°
2026-05-04 11:38 49.91219 -59.10996 38230 ft 497 kts 233°
2026-05-04 11:39 49.87249 -59.19812 38227 ft 497 kts 233°
2026-05-04 11:41 49.73338 -59.50473 38211 ft 499 kts 233°
2026-05-04 11:41 49.69336 -59.59227 38211 ft 499 kts 233°
2026-05-04 11:42 49.65324 -59.67975 38209 ft 499 kts 232°
2026-05-04 11:42 49.61253 -59.76823 38207 ft 512 kts 231°
2026-05-04 11:43 49.57123 -59.85767 38206 ft 513 kts 231°
2026-05-04 11:43 49.52980 -59.94713 38201 ft 512 kts 231°
2026-05-04 11:44 49.48828 -60.03646 38203 ft 513 kts 231°
2026-05-04 11:44 49.44664 -60.12575 38201 ft 513 kts 231°
2026-05-04 11:45 49.40493 -60.21489 38201 ft 513 kts 231°
2026-05-04 11:45 49.36322 -60.30375 38201 ft 513 kts 231°
2026-05-04 11:46 49.32163 -60.39204 38189 ft 514 kts 231°
2026-05-04 11:46 49.27970 -60.48077 38205 ft 514 kts 231°
2026-05-04 11:47 49.23771 -60.56932 38210 ft 514 kts 231°
2026-05-04 11:47 49.19571 -60.65762 38198 ft 513 kts 231°
2026-05-04 11:48 49.15357 -60.74589 38203 ft 513 kts 231°
2026-05-04 11:48 49.11141 -60.83394 38204 ft 513 kts 231°
2026-05-04 11:49 49.06919 -60.92180 38203 ft 513 kts 231°
2026-05-04 11:49 49.02700 -61.00935 38205 ft 513 kts 231°
2026-05-04 11:50 48.98463 -61.09695 38205 ft 513 kts 231°
2026-05-04 11:50 48.94256 -61.18365 38206 ft 513 kts 231°
2026-05-04 11:51 48.90012 -61.27084 38210 ft 513 kts 231°
2026-05-04 11:51 48.85753 -61.35806 38210 ft 513 kts 231°
2026-05-04 11:52 48.81491 -61.44506 38213 ft 513 kts 231°
2026-05-04 11:52 48.77222 -61.53192 38215 ft 514 kts 231°
2026-05-04 11:53 48.72940 -61.61875 38219 ft 514 kts 231°
2026-05-04 11:53 48.68652 -61.70544 38222 ft 514 kts 231°
2026-05-04 11:55 48.51494 -62.04951 38247 ft 513 kts 231°
2026-05-04 11:56 48.47185 -62.13524 38251 ft 512 kts 231°
2026-05-04 11:56 48.42866 -62.22089 38260 ft 514 kts 231°
2026-05-04 11:57 48.38546 -62.30629 38268 ft 512 kts 231°
2026-05-04 11:57 48.34228 -62.39138 38277 ft 510 kts 231°
2026-05-04 11:58 48.29961 -62.47521 38287 ft 508 kts 231°
2026-05-04 11:58 48.25648 -62.55967 38295 ft 512 kts 231°
2026-05-04 11:59 48.21321 -62.64414 38307 ft 508 kts 231°
2026-05-04 11:59 48.17730 -62.71404 38309 ft 511 kts 231°
2026-05-04 12:00 48.13393 -62.79823 38319 ft 508 kts 231°
2026-05-04 12:00 48.09078 -62.88176 38328 ft 508 kts 231°
2026-05-04 12:01 48.04731 -62.96559 38337 ft 508 kts 231°
2026-05-04 12:02 47.89571 -63.25606 38372 ft 507 kts 231°
2026-05-04 12:03 47.85219 -63.33887 38381 ft 503 kts 231°
2026-05-04 12:03 47.80951 -63.41986 38388 ft 492 kts 231°
2026-05-04 12:04 47.76732 -63.49966 38395 ft 491 kts 231°
2026-05-04 12:04 47.72479 -63.57985 38397 ft 492 kts 231°
2026-05-04 12:05 47.68270 -63.65901 38404 ft 494 kts 231°
2026-05-04 12:05 47.63945 -63.74008 38410 ft 508 kts 231°
2026-05-04 12:06 47.59557 -63.82211 38416 ft 505 kts 231°
2026-05-04 12:06 47.55198 -63.90335 38417 ft 502 kts 231°
2026-05-04 12:07 47.50830 -63.98453 38427 ft 506 kts 231°
2026-05-04 12:07 47.46446 -64.06574 38432 ft 503 kts 231°
2026-05-04 12:08 47.42108 -64.14587 38442 ft 496 kts 231°
2026-05-04 12:08 47.37787 -64.22545 38451 ft 500 kts 231°
2026-05-04 12:09 47.33413 -64.30578 38473 ft 502 kts 231°
2026-05-04 12:09 47.29056 -64.38557 38496 ft 499 kts 231°
2026-05-04 12:10 47.24682 -64.46543 38503 ft 499 kts 231°
2026-05-04 12:10 47.20358 -64.54413 38508 ft 498 kts 231°
2026-05-04 12:11 47.15978 -64.62363 38511 ft 498 kts 231°
2026-05-04 12:11 47.11621 -64.70249 38518 ft 498 kts 231°
2026-05-04 12:12 47.07220 -64.78192 38528 ft 501 kts 231°
2026-05-04 12:12 47.02827 -64.86097 38532 ft 499 kts 231°
2026-05-04 12:14 46.85226 -65.17543 38566 ft 500 kts 231°
2026-05-04 12:15 46.80808 -65.25380 38573 ft 499 kts 231°
2026-05-04 12:15 46.76416 -65.33148 38580 ft 499 kts 231°
2026-05-04 12:16 46.71959 -65.41009 38587 ft 500 kts 231°
2026-05-04 12:16 46.67559 -65.48747 38599 ft 500 kts 231°
2026-05-04 12:17 46.63106 -65.56559 38606 ft 501 kts 231°
2026-05-04 12:17 46.58639 -65.64371 38614 ft 501 kts 231°
2026-05-04 12:18 46.54174 -65.72158 38623 ft 501 kts 231°
2026-05-04 12:18 46.49702 -65.79935 38631 ft 502 kts 231°
2026-05-04 12:19 46.45252 -65.87650 38636 ft 501 kts 231°
2026-05-04 12:19 46.40770 -65.95401 38648 ft 501 kts 231°
2026-05-04 12:20 46.36278 -66.03148 38657 ft 501 kts 231°
2026-05-04 12:20 46.31785 -66.10873 38661 ft 501 kts 231°
2026-05-04 12:21 46.27292 -66.18578 38668 ft 501 kts 231°
2026-05-04 12:21 46.22798 -66.26262 38678 ft 500 kts 231°
2026-05-04 12:22 46.18303 -66.33926 38687 ft 500 kts 231°
2026-05-04 12:22 46.13828 -66.41537 38703 ft 500 kts 231°
2026-05-04 12:23 46.09332 -66.49163 38715 ft 499 kts 230°
2026-05-04 12:23 46.04828 -66.56779 38727 ft 498 kts 230°
2026-05-04 12:24 46.00329 -66.64367 38731 ft 498 kts 230°
2026-05-04 12:24 45.95829 -66.71936 38730 ft 497 kts 230°
2026-05-04 12:25 45.91336 -66.79471 38732 ft 497 kts 230°
2026-05-04 12:25 45.86834 -66.87002 38733 ft 496 kts 230°
2026-05-04 12:26 45.82345 -66.94490 38734 ft 495 kts 230°
2026-05-04 12:26 45.77847 -67.01974 38743 ft 494 kts 230°
2026-05-04 12:27 45.73386 -67.09376 38746 ft 494 kts 230°
2026-05-04 12:27 45.68891 -67.16815 38754 ft 494 kts 230°
2026-05-04 12:28 45.64393 -67.24242 38759 ft 494 kts 230°
2026-05-04 12:28 45.59904 -67.31643 38763 ft 492 kts 230°
2026-05-04 12:29 45.55412 -67.39031 38769 ft 493 kts 230°
2026-05-04 12:29 45.50914 -67.46410 38776 ft 493 kts 230°
2026-05-04 12:30 45.46409 -67.53780 38784 ft 492 kts 230°
2026-05-04 12:30 45.41905 -67.61128 38788 ft 492 kts 230°
2026-05-04 12:31 45.37436 -67.68401 38793 ft 491 kts 230°
2026-05-04 12:31 45.32919 -67.75713 38801 ft 491 kts 230°
2026-05-04 12:32 45.25990 -67.86470 38808 ft 490 kts 230°
2026-05-04 12:33 45.21438 -67.93667 38808 ft 490 kts 230°
2026-05-04 12:33 45.16909 -68.00789 38811 ft 489 kts 230°
2026-05-04 12:34 45.12343 -68.07936 38816 ft 488 kts 230°
2026-05-04 12:34 45.07784 -68.15050 38818 ft 487 kts 230°
2026-05-04 12:35 45.03224 -68.22147 38821 ft 488 kts 230°
2026-05-04 12:35 44.98658 -68.29238 38820 ft 487 kts 229°
2026-05-04 12:36 44.94096 -68.36303 38825 ft 487 kts 229°
2026-05-04 12:36 44.89528 -68.43359 38825 ft 486 kts 229°
2026-05-04 12:37 44.84949 -68.50415 38829 ft 486 kts 229°
2026-05-04 12:37 44.80410 -68.57391 38833 ft 487 kts 229°
2026-05-04 12:38 44.75833 -68.64408 38835 ft 486 kts 229°
2026-05-04 12:38 44.71222 -68.71461 38839 ft 486 kts 229°
2026-05-04 12:39 44.66667 -68.78408 38840 ft 486 kts 229°
2026-05-04 12:39 44.62069 -68.85405 38838 ft 487 kts 229°
2026-05-04 12:40 44.57472 -68.92382 38834 ft 487 kts 229°
2026-05-04 12:40 44.52863 -68.99359 38830 ft 487 kts 229°
2026-05-04 12:41 44.48250 -69.06327 38825 ft 487 kts 229°
2026-05-04 12:41 44.43640 -69.13271 38829 ft 487 kts 229°
2026-05-04 12:42 44.39030 -69.20198 38839 ft 487 kts 229°
2026-05-04 12:42 44.34403 -69.27134 38841 ft 487 kts 229°
2026-05-04 12:43 44.29812 -69.33998 38846 ft 487 kts 229°
2026-05-04 12:43 44.25170 -69.40923 38846 ft 488 kts 229°
2026-05-04 12:44 44.20534 -69.47821 38849 ft 488 kts 228°
2026-05-04 12:44 44.15887 -69.54717 38859 ft 488 kts 228°
2026-05-04 12:45 44.11238 -69.61600 38863 ft 488 kts 228°
2026-05-04 12:45 44.06584 -69.68473 38869 ft 488 kts 228°
2026-05-04 12:46 44.01923 -69.75340 38867 ft 488 kts 228°
2026-05-04 12:46 43.97262 -69.82191 38869 ft 488 kts 228°
2026-05-04 12:47 43.92589 -69.89041 38888 ft 488 kts 228°
2026-05-04 12:47 43.88703 -69.94725 38888 ft 487 kts 228°
2026-05-04 12:48 43.84043 -70.01526 38888 ft 487 kts 228°
2026-05-04 12:48 43.79372 -70.08327 38883 ft 487 kts 228°
2026-05-04 12:49 43.74696 -70.15119 38881 ft 487 kts 228°
2026-05-04 12:49 43.70020 -70.21894 38888 ft 487 kts 228°
2026-05-04 12:50 43.65343 -70.28654 38886 ft 487 kts 228°
2026-05-04 12:50 43.60658 -70.35409 38887 ft 487 kts 228°
2026-05-04 12:51 43.55976 -70.42145 38887 ft 487 kts 228°
2026-05-04 12:51 43.51290 -70.48869 38884 ft 486 kts 228°
2026-05-04 12:52 43.46570 -70.55539 38894 ft 487 kts 225°
2026-05-04 12:52 43.41304 -70.61422 38897 ft 489 kts 218°
2026-05-04 12:53 43.35498 -70.66158 38896 ft 491 kts 210°
2026-05-04 12:53 43.29338 -70.70251 38899 ft 491 kts 210°
2026-05-04 12:54 43.23198 -70.74376 38893 ft 492 kts 210°
2026-05-04 12:54 43.17054 -70.78495 38896 ft 491 kts 210°
2026-05-04 12:55 43.10915 -70.82598 38895 ft 491 kts 210°
2026-05-04 12:55 43.04775 -70.86692 38895 ft 491 kts 210°
2026-05-04 12:56 42.98634 -70.90778 38895 ft 491 kts 210°
2026-05-04 12:56 42.92488 -70.94857 38899 ft 491 kts 210°
2026-05-04 12:57 42.86353 -70.98920 38919 ft 490 kts 210°
2026-05-04 12:57 42.80204 -71.02983 38926 ft 491 kts 210°
2026-05-04 12:58 42.74055 -71.07038 38921 ft 491 kts 210°
2026-05-04 12:58 42.67904 -71.11084 38925 ft 491 kts 210°